[[{"header":{"parameterUnit":"m.s-1","parameterCategory":1,"la1":30.2991,"la2":30.254,"lo1":-89.0895,"lo2":-89.0444,"dy":0.0017,"dx":0.0017,"nx":28,"ny":28,"refTime":"2025-04-12T21:00:00:Z","depth":0,"parameterNumber":2,"parameterNumberName":"U-component_of_WINDS"},"data":[0,0,0,0,0,0,0,0,0,0,0,0,0,0,0,0,0,0,0,0,0,0,0,0,0,0,0,0,0,0,0,0,0,0,0,0,0,0,0,0,0,0,0,0,0,0,0,0,0,0,0,0,0,0,0,0,0,0,1.6807,1.6808,0,1.6859,1.6859,1.686,1.6881,1.6881,1.6881,1.6881,1.6935,1.6937,1.6938,0,0,0,0,0,0,0,0,0,0,0,0,0,1.6731,1.6732,1.6807,1.6808,1.6809,1.6859,1.6859,1.686,1.6881,1.6881,1.6881,1.6881,1.6935,1.6937,1.6938,0,0,0,0,0,0,0,0,0,0,0,0,0,1.6771,1.6733,1.6807,1.6825,1.6827,1.6858,1.6859,1.686,1.6881,1.6881,1.6881,1.6881,1.6934,1.6936,1.6939,1.6956,0,0,1.6946,1.6947,0,0,0,0,0,0,0,0,1.6769,1.6774,1.6822,1.6824,1.6827,1.6863,1.6852,1.6892,1.6882,1.6861,1.6881,1.6881,1.6912,1.6916,1.6926,1.6958,1.6961,1.6946,1.6947,1.6948,1.6949,0,0,0,0,0,0,0,1.6766,1.6772,1.6828,1.6823,1.6825,1.6832,1.6837,1.686,1.6887,1.6863,1.6864,1.687,1.6913,1.6923,1.6927,1.6962,1.6946,1.6948,1.6949,1.695,1.7013,1.7013,0,0,0,0,0,0,1.676,1.677,1.6826,1.6829,1.6797,1.6833,1.684,1.6852,1.6886,1.6891,1.687,1.6871,1.692,1.6924,1.6929,1.6953,1.6948,1.695,1.6952,1.7013,1.7013,1.7013,0,0,0,0,0,0,1.6758,1.6765,1.6824,1.68,1.6808,1.6835,1.6848,1.6853,1.6863,1.6892,1.6897,1.6876,1.692,1.6926,1.6949,1.6955,1.6951,1.6954,1.7012,1.7013,1.7013,1.6999,0,0,0,0,0,0,1.6756,1.6764,1.677,1.68,1.6809,1.6842,1.6849,1.6854,1.6867,1.6869,1.6899,1.6904,1.692,1.6946,1.6952,1.6958,1.6955,1.7012,1.7013,1.7013,1.6999,1.6999,1.6998,0,0,0,0,0,1.6753,1.6764,1.677,1.6777,1.6817,1.6842,1.6848,1.6866,1.6867,1.6874,1.6893,1.6903,1.6953,1.6948,1.6955,1.6962,1.7012,1.7012,1.7013,1.6999,1.6999,1.6998,0,0,0,0,0,0,1.6734,1.6768,1.6775,1.6796,1.6816,1.6846,1.6855,1.6865,1.6886,1.6886,1.6909,1.6915,1.6937,1.6952,1.6945,1.6981,1.6984,1.6986,1.697,1.697,1.697,1.6966,1.6957,0,0,0,0,0,1.6732,1.6749,1.6779,1.6794,1.6804,1.6828,1.6839,1.6852,1.6874,1.6883,1.6903,1.6925,1.6946,1.6959,1.698,1.7002,1.7009,1.701,1.701,1.7009,1.7011,1.7025,1.7026,1.7016,1.7016,1.7016,0,0,1.6729,1.6749,1.6759,1.6791,1.6808,1.6826,1.6835,1.6853,1.6867,1.6886,1.6909,1.6925,1.6951,1.6974,1.6985,1.6987,1.7015,1.701,1.701,1.7011,1.7025,1.7026,1.7027,1.7016,1.7016,1.7016,0,0,1.6731,1.6748,1.6763,1.6781,1.6807,1.6823,1.6827,1.6856,1.6867,1.6891,1.6905,1.6923,1.6958,1.6977,1.699,1.7002,1.7012,1.7009,1.7007,1.7021,1.7021,1.7022,1.7027,1.7029,1.701,1.701,1.701,0,1.6723,1.6751,1.677,1.6788,1.6803,1.682,1.6837,1.6853,1.6884,1.6894,1.6896,1.6942,1.696,1.6988,1.6991,1.7002,1.7008,1.7005,1.702,1.7021,1.7022,1.7027,1.7028,1.7009,1.7009,1.701,1.701,0,1.6741,1.6759,1.6769,1.6799,1.6814,1.6831,1.6854,1.6868,1.688,1.6896,1.6921,1.6944,1.6971,1.6979,1.699,1.7009,1.7009,1.7015,1.7018,1.7022,1.7027,1.7029,1.7008,1.7009,1.7009,1.7009,0,0,1.6731,1.6773,1.6776,1.679,1.6821,1.6837,1.6856,1.6881,1.6893,1.6915,1.6932,1.6962,1.6968,1.6984,1.6998,1.701,1.7019,1.7014,1.7015,1.7015,1.7042,1.7038,1.704,1.7026,1.7027,1.7027,1.704,0,1.6738,1.6772,1.679,1.6817,1.6835,1.6853,1.687,1.6891,1.6908,1.6927,1.6945,1.6967,1.6973,1.6983,1.6995,1.7015,1.7025,1.7014,1.7043,1.7044,1.7036,1.7042,1.7037,1.7048,1.7042,1.7043,1.7043,0,1.675,1.6772,1.68,1.683,1.6838,1.6853,1.6879,1.6896,1.6922,1.6933,1.6952,1.6966,1.6988,1.6989,1.7021,1.7013,1.7027,1.7038,1.7039,1.7042,1.7043,1.7046,1.7052,1.7054,1.7046,1.7046,1.7046,0,1.6741,1.6777,1.6799,1.6811,1.6846,1.6856,1.6872,1.6897,1.6912,1.6935,1.6945,1.6971,1.6985,1.7005,1.7026,1.7025,1.7056,1.7059,1.7066,1.7066,1.7072,1.7071,1.7081,1.708,1.708,1.708,1.708,0,1.6747,1.6763,1.6796,1.6809,1.6828,1.6851,1.687,1.6887,1.691,1.6928,1.6945,1.6962,1.6989,1.701,1.7027,1.7051,1.7057,1.7067,1.7072,1.7066,1.7064,1.7074,1.7074,1.708,1.708,1.708,1.708,0,1.674,1.6762,1.6787,1.6819,1.6827,1.6841,1.6869,1.6883,1.6901,1.6923,1.693,1.6959,1.6984,1.7007,1.7041,1.7052,1.7077,1.7082,1.7068,1.707,1.7077,1.7076,1.7093,1.7097,1.7093,1.7093,1.7093,0,1.6742,1.6755,1.6789,1.6802,1.6817,1.6838,1.6853,1.6876,1.6892,1.6923,1.6934,1.696,1.6983,1.7022,1.7046,1.7073,1.7079,1.7083,1.7083,1.7077,1.708,1.7079,1.708,1.7083,1.7083,1.7083,1.7083,0,1.6743,1.6754,1.6775,1.68,1.6818,1.684,1.6861,1.6871,1.6899,1.6916,1.6942,1.6959,1.6994,1.702,1.705,1.7067,1.708,1.7083,1.7086,1.708,1.7071,1.7076,1.7067,1.7082,1.7082,1.7082,1.7082,1.7082,1.6741,1.6754,1.678,1.6804,1.6823,1.6843,1.6858,1.6879,1.69,1.693,1.6943,1.697,1.6997,1.7037,1.7055,1.7076,1.7079,1.7084,1.7085,1.7086,1.7085,1.7068,1.7082,1.7082,1.7082,1.7082,1.7082,0,1.6744,1.6762,1.6783,1.6813,1.6832,1.6843,1.6868,1.6883,1.6906,1.693,1.6952,1.6983,1.7009,1.7036,1.7064,1.7076,1.7083,1.7083,1.7082,1.7086,1.708,1.7075,1.7077,1.7077,1.7077,1.7077,1.7077,1.7077,1.6747,1.677,1.6784,1.6818,1.6836,1.6862,1.6875,1.6895,1.6914,1.6947,1.6969,1.6986,1.7012,1.7042,1.7067,1.7075,1.7084,1.7083,1.7092,1.7086,1.7086,1.7086,1.7081,1.7085,1.7085,1.7096,1.7096,1.7096]},{"header":{"parameterUnit":"m.s-1","parameterCategory":1,"la1":30.2991,"la2":30.254,"lo1":-89.0895,"lo2":-89.0444,"dy":0.0017,"dx":0.0017,"nx":28,"ny":28,"refTime":"2025-04-12T21:00:00:Z","depth":0,"parameterNumber":3,"parameterNumberName":"V-component_of_WINDS"},"data":[0,0,0,0,0,0,0,0,0,0,0,0,0,0,0,0,0,0,0,0,0,0,0,0,0,0,0,0,0,0,0,0,0,0,0,0,0,0,0,0,0,0,0,0,0,0,0,0,0,0,0,0,0,0,0,0,0,0,-2.4503,-2.4503,0,-2.4431,-2.443,-2.4429,-2.4448,-2.445,-2.4451,-2.4452,-2.4369,-2.4366,-2.4362,0,0,0,0,0,0,0,0,0,0,0,0,0,-2.4653,-2.465,-2.4503,-2.4503,-2.4502,-2.4431,-2.443,-2.4429,-2.4448,-2.445,-2.4451,-2.4453,-2.4371,-2.4366,-2.4362,0,0,0,0,0,0,0,0,0,0,0,0,0,-2.4585,-2.465,-2.4504,-2.4503,-2.4502,-2.4431,-2.443,-2.4429,-2.4447,-2.445,-2.4452,-2.4454,-2.4372,-2.4367,-2.4362,-2.4285,0,0,-2.4345,-2.4343,0,0,0,0,0,0,0,0,-2.4589,-2.4579,-2.4504,-2.4503,-2.4502,-2.4451,-2.4453,-2.438,-2.4447,-2.4468,-2.4452,-2.4455,-2.4394,-2.4387,-2.4369,-2.4281,-2.4277,-2.4345,-2.4341,-2.4339,-2.4338,0,0,0,0,0,0,0,-2.4594,-2.4583,-2.4474,-2.4503,-2.4501,-2.4504,-2.4497,-2.4439,-2.4419,-2.4466,-2.4467,-2.4459,-2.4394,-2.4374,-2.4367,-2.4276,-2.4345,-2.434,-2.4337,-2.4335,-2.4126,-2.4123,0,0,0,0,0,0,-2.46,-2.4586,-2.4477,-2.4472,-2.4552,-2.45,-2.4492,-2.4465,-2.442,-2.4416,-2.4457,-2.446,-2.4382,-2.4373,-2.4364,-2.4274,-2.4339,-2.4334,-2.4331,-2.4128,-2.4125,-2.4123,0,0,0,0,0,0,-2.4603,-2.459,-2.448,-2.453,-2.4516,-2.4495,-2.4465,-2.4462,-2.4442,-2.4414,-2.4409,-2.444,-2.4383,-2.4371,-2.4306,-2.4271,-2.4332,-2.4327,-2.4131,-2.4127,-2.4124,-2.4091,0,0,0,0,0,0,-2.4607,-2.4591,-2.4562,-2.4529,-2.4513,-2.4424,-2.4462,-2.4459,-2.4434,-2.4437,-2.4397,-2.4392,-2.4384,-2.4314,-2.43,-2.4265,-2.4323,-2.4134,-2.4129,-2.4125,-2.4095,-2.4087,-2.408,0,0,0,0,0,-2.4613,-2.4553,-2.4561,-2.4547,-2.4477,-2.4422,-2.4413,-2.4407,-2.4431,-2.4402,-2.4384,-2.4393,-2.4277,-2.4307,-2.4292,-2.4254,-2.4136,-2.413,-2.4125,-2.4099,-2.4089,-2.408,0,0,0,0,0,0,-2.4578,-2.4549,-2.4557,-2.4485,-2.4457,-2.4426,-2.4388,-2.4396,-2.4358,-2.4362,-2.4354,-2.4345,-2.4279,-2.426,-2.4293,-2.418,-2.421,-2.4201,-2.4195,-2.4185,-2.4177,-2.4183,-2.4318,0,0,0,0,0,-2.4564,-2.4523,-2.4498,-2.4437,-2.4423,-2.4408,-2.4384,-2.4383,-2.4352,-2.4339,-2.4316,-2.4283,-2.424,-2.4211,-2.4169,-2.4093,-2.4085,-2.406,-2.4052,-2.4046,-2.4039,-2.4,-2.3989,-2.4105,-2.4105,-2.4105,0,0,-2.453,-2.4509,-2.4483,-2.443,-2.4408,-2.4366,-2.4398,-2.435,-2.4318,-2.433,-2.4269,-2.4251,-2.4214,-2.4144,-2.4112,-2.4126,-2.4006,-2.4039,-2.4035,-2.4031,-2.3994,-2.3983,-2.3973,-2.4102,-2.4102,-2.4103,0,0,-2.4449,-2.4428,-2.4378,-2.4356,-2.4324,-2.4315,-2.4303,-2.4272,-2.4262,-2.4201,-2.421,-2.4171,-2.4096,-2.4071,-2.4048,-2.3962,-2.397,-2.3949,-2.3908,-2.3871,-2.3862,-2.3854,-2.3825,-2.3815,-2.3941,-2.3941,-2.3941,0,-2.4411,-2.435,-2.4349,-2.4303,-2.428,-2.4294,-2.4242,-2.422,-2.4174,-2.4158,-2.4175,-2.4085,-2.406,-2.3986,-2.3966,-2.3946,-2.3933,-2.3953,-2.3864,-2.3856,-2.3848,-2.3821,-2.381,-2.3939,-2.3939,-2.394,-2.394,0,-2.4306,-2.4263,-2.4226,-2.4187,-2.416,-2.411,-2.4102,-2.4074,-2.4077,-2.4066,-2.4005,-2.3977,-2.3932,-2.3914,-2.3913,-2.3841,-2.3851,-2.3866,-2.3896,-2.3835,-2.3809,-2.3799,-2.3936,-2.3937,-2.3937,-2.3938,0,0,-2.4198,-2.4164,-2.415,-2.4134,-2.4102,-2.4068,-2.402,-2.398,-2.3957,-2.3926,-2.3886,-2.3825,-2.384,-2.3814,-2.3811,-2.3779,-2.3716,-2.3798,-2.3797,-2.3785,-2.3637,-2.3627,-2.3615,-2.3722,-2.372,-2.3718,-2.3641,0,-2.4115,-2.4035,-2.4035,-2.396,-2.3922,-2.3937,-2.3896,-2.3871,-2.3861,-2.3826,-2.3813,-2.3771,-2.3793,-2.3778,-2.3746,-2.3731,-2.3686,-2.3736,-2.3684,-2.3682,-2.3694,-2.3601,-2.3589,-2.3518,-2.3631,-2.3629,-2.3628,0,-2.4007,-2.3978,-2.3901,-2.3879,-2.3862,-2.3826,-2.3791,-2.3757,-2.373,-2.3725,-2.3699,-2.3703,-2.3654,-2.3687,-2.362,-2.3654,-2.3633,-2.3623,-2.362,-2.3615,-2.3652,-2.3595,-2.3494,-2.3484,-2.3611,-2.3613,-2.3614,0,-2.3939,-2.388,-2.3827,-2.3813,-2.3784,-2.3759,-2.3746,-2.3721,-2.3698,-2.3667,-2.3652,-2.3614,-2.3594,-2.3564,-2.3557,-2.3581,-2.3491,-2.3523,-2.3486,-2.3486,-2.3466,-2.3467,-2.3362,-2.345,-2.3451,-2.3451,-2.3451,0,-2.3847,-2.3799,-2.3797,-2.3764,-2.3713,-2.3714,-2.3661,-2.365,-2.3629,-2.3594,-2.3602,-2.3569,-2.3562,-2.3527,-2.3521,-2.3468,-2.3458,-2.3452,-2.3452,-2.3452,-2.3453,-2.3438,-2.3444,-2.3448,-2.3449,-2.3449,-2.345,0,-2.3761,-2.3758,-2.3702,-2.3682,-2.3676,-2.3639,-2.3621,-2.359,-2.3583,-2.3538,-2.3528,-2.3515,-2.3475,-2.3466,-2.3416,-2.3413,-2.3351,-2.3354,-2.3361,-2.3362,-2.3327,-2.3331,-2.3208,-2.3193,-2.3291,-2.329,-2.3289,0,-2.3703,-2.3668,-2.3646,-2.3626,-2.3613,-2.3578,-2.3557,-2.3557,-2.3534,-2.3503,-2.3476,-2.3438,-2.3407,-2.3342,-2.3327,-2.3291,-2.3294,-2.3254,-2.3288,-2.3291,-2.3295,-2.3298,-2.3296,-2.3247,-2.3246,-2.3245,-2.3244,0,-2.3601,-2.3603,-2.3573,-2.3544,-2.352,-2.3495,-2.3472,-2.3454,-2.3451,-2.3425,-2.3387,-2.3363,-2.3317,-2.3279,-2.3243,-2.3227,-2.3235,-2.3234,-2.3224,-2.3225,-2.3231,-2.3229,-2.3345,-2.3237,-2.3237,-2.3238,-2.3238,-2.3239,-2.3529,-2.35,-2.3482,-2.3449,-2.3434,-2.3413,-2.3385,-2.3376,-2.3345,-2.331,-2.3311,-2.327,-2.3246,-2.32,-2.3183,-2.3149,-2.3161,-2.3146,-2.3142,-2.3139,-2.3137,-2.3237,-2.3142,-2.3142,-2.3143,-2.3143,-2.3143,0,-2.3429,-2.342,-2.339,-2.3361,-2.3336,-2.335,-2.3327,-2.3304,-2.3269,-2.3248,-2.322,-2.3177,-2.3142,-2.3126,-2.3091,-2.3068,-2.3071,-2.3058,-2.306,-2.3057,-2.3127,-2.314,-2.3057,-2.3057,-2.3057,-2.3057,-2.3057,-2.3057,-2.3374,-2.3328,-2.3328,-2.3274,-2.3264,-2.3226,-2.3212,-2.3194,-2.3178,-2.3131,-2.3104,-2.3095,-2.3077,-2.3042,-2.301,-2.3006,-2.2993,-2.298,-2.2978,-2.3043,-2.3052,-2.306,-2.3073,-2.2977,-2.2977,-2.2911,-2.2911,-2.291]}]]